Time,TemperatureF,DewpointF,PressureIn,WindDirection,WindDirectionDegrees,WindSpeedMPH,WindSpeedGustMPH,Humidity,HourlyPrecipIn,Conditions,Clouds,dailyrainin,SoftwareType,DateUTC
2013-08-30 08:40:00,70.8,66.1,30.27,SW,225,0.0,1.7,85,0.00,,,0.00,WUHU216HW,2013-08-30 12:40:00,
2013-08-30 08:45:00,70.8,66.1,30.27,SW,225,0.0,1.7,85,0.00,,,0.00,WUHU216HW,2013-08-30 12:45:00,
2013-08-30 08:50:00,70.8,66.1,30.27,SW,225,0.0,0.0,85,0.00,,,0.00,WUHU216HW,2013-08-30 12:50:00,
2013-08-30 08:55:00,70.8,66.1,30.27,WSW,248,4.6,4.6,85,0.00,,,0.00,WUHU216HW,2013-08-30 12:55:00,
2013-08-30 09:00:00,71.0,66.2,30.26,WSW,248,2.6,4.6,85,0.00,,,0.00,WUHU216HW,2013-08-30 13:00:00,
2013-08-30 09:05:00,71.2,66.4,30.26,SW,225,2.0,2.6,85,0.00,,,0.00,WUHU216HW,2013-08-30 13:05:00,
2013-08-30 09:10:00,71.2,66.4,30.25,SW,225,0.0,2.6,85,0.00,,,0.00,WUHU216HW,2013-08-30 13:10:00,
2013-08-30 09:15:00,71.4,66.6,30.25,WSW,248,5.3,5.3,85,0.00,,,0.00,WUHU216HW,2013-08-30 13:15:00,
2013-08-30 09:20:00,71.4,66.3,30.25,WSW,248,2.0,5.3,84,0.00,,,0.00,WUHU216HW,2013-08-30 13:20:00,
2013-08-30 09:25:00,71.7,66.6,30.25,WSW,248,2.2,5.3,84,0.00,,,0.00,WUHU216HW,2013-08-30 13:25:00,
2013-08-30 09:30:00,71.9,66.8,30.25,WSW,248,0.0,4.6,84,0.00,,,0.00,WUHU216HW,2013-08-30 13:30:00,
2013-08-30 09:35:00,72.1,67.0,30.25,SW,225,2.0,4.6,84,0.00,,,0.00,WUHU216HW,2013-08-30 13:35:00,
2013-08-30 09:40:00,72.1,67.0,30.25,SW,225,0.0,2.0,84,0.00,,,0.00,WUHU216HW,2013-08-30 13:40:00,
2013-08-30 09:45:00,72.3,67.2,30.26,WSW,248,4.4,4.4,84,0.00,,,0.00,WUHU216HW,2013-08-30 13:45:00,
2013-08-30 09:50:00,72.6,67.5,30.26,WSW,248,4.0,4.4,84,0.00,,,0.00,WUHU216HW,2013-08-30 13:50:00,
2013-08-30 09:55:00,73.0,67.5,30.25,SW,225,2.0,4.4,83,0.00,,,0.00,WUHU216HW,2013-08-30 13:55:00,
2013-08-30 10:00:00,73.2,67.7,30.26,SW,225,1.1,4.9,83,0.00,,,0.00,WUHU216HW,2013-08-30 14:00:00,
2013-08-30 10:05:00,73.4,67.9,30.26,SW,225,1.5,4.9,83,0.00,,,0.00,WUHU216HW,2013-08-30 14:05:00,
2013-08-30 10:10:00,73.7,67.9,30.26,WSW,248,4.0,4.9,82,0.00,,,0.00,WUHU216HW,2013-08-30 14:10:00,
2013-08-30 10:15:00,73.9,68.1,30.26,WSW,248,3.8,4.9,82,0.00,,,0.00,WUHU216HW,2013-08-30 14:15:00,
2013-08-30 10:20:00,74.1,68.3,30.26,WSW,248,6.4,6.4,82,0.00,,,0.00,WUHU216HW,2013-08-30 14:20:00,
2013-08-30 10:25:00,74.3,68.1,30.25,SW,225,3.1,6.4,81,0.00,,,0.00,WUHU216HW,2013-08-30 14:25:00,
2013-08-30 10:30:00,74.4,68.3,30.25,SW,225,2.2,6.4,81,0.00,,,0.00,WUHU216HW,2013-08-30 14:30:00,
2013-08-30 10:35:00,74.8,68.3,30.24,SW,225,5.1,6.0,80,0.00,,,0.00,WUHU216HW,2013-08-30 14:35:00,
2013-08-30 10:40:00,75.0,68.5,30.24,WSW,248,4.6,6.0,80,0.00,,,0.00,WUHU216HW,2013-08-30 14:40:00,
2013-08-30 10:45:00,75.5,68.6,30.24,WSW,248,5.5,6.0,79,0.00,,,0.00,WUHU216HW,2013-08-30 14:45:00,
2013-08-30 10:50:00,75.7,68.8,30.24,WSW,248,4.0,5.5,79,0.00,,,0.00,WUHU216HW,2013-08-30 14:50:00,
2013-08-30 10:55:00,76.1,69.1,30.24,WSW,248,6.9,6.9,79,0.00,,,0.00,WUHU216HW,2013-08-30 14:55:00,
2013-08-30 11:00:00,76.6,69.2,30.23,WSW,248,2.6,6.9,78,0.00,,,0.00,WUHU216HW,2013-08-30 15:00:00,
2013-08-30 11:05:00,76.8,69.0,30.23,WSW,248,6.0,6.0,77,0.00,,,0.00,WUHU216HW,2013-08-30 15:05:00,
2013-08-30 11:10:00,77.0,69.2,30.23,SW,225,6.0,6.9,77,0.00,,,0.00,WUHU216HW,2013-08-30 15:10:00,
2013-08-30 11:15:00,77.3,69.5,30.23,WSW,248,5.1,6.9,77,0.00,,,0.00,WUHU216HW,2013-08-30 15:15:00,
2013-08-30 11:20:00,77.5,69.3,30.23,WSW,248,6.2,6.2,76,0.00,,,0.00,WUHU216HW,2013-08-30 15:20:00,
2013-08-30 11:25:00,77.7,69.5,30.23,WSW,248,6.0,6.2,76,0.00,,,0.00,WUHU216HW,2013-08-30 15:25:00,
2013-08-30 11:30:00,78.0,69.2,30.23,WSW,248,3.3,6.9,75,0.00,,,0.00,WUHU216HW,2013-08-30 15:30:00,
2013-08-30 11:35:00,78.4,69.8,30.23,SW,225,4.4,6.9,75,0.00,,,0.00,WUHU216HW,2013-08-30 15:35:00,
2013-08-30 11:40:00,78.6,69.9,30.23,WSW,248,8.0,8.0,75,0.00,,,0.00,WUHU216HW,2013-08-30 15:40:00,
2013-08-30 11:45:00,78.9,69.7,30.24,WSW,248,6.9,8.0,74,0.00,,,0.00,WUHU216HW,2013-08-30 15:45:00,
2013-08-30 11:50:00,79.3,69.9,30.23,SW,225,6.7,8.2,73,0.00,,,0.00,WUHU216HW,2013-08-30 15:50:00,
2013-08-30 11:55:00,79.5,69.6,30.22,WSW,248,5.3,8.5,72,0.00,,,0.00,WUHU216HW,2013-08-30 15:55:00,
2013-08-30 12:00:00,80.2,70.4,30.22,WSW,248,6.4,8.5,72,0.00,,,0.00,WUHU216HW,2013-08-30 16:00:00,
2013-08-30 12:05:00,80.7,70.9,30.22,WSW,248,4.4,6.9,72,0.00,,,0.00,WUHU216HW,2013-08-30 16:05:00,
2013-08-30 12:10:00,81.1,70.8,30.21,WSW,248,4.6,6.4,71,0.00,,,0.00,WUHU216HW,2013-08-30 16:10:00,
2013-08-30 12:15:00,81.8,71.5,30.21,SW,225,5.5,6.4,71,0.00,,,0.00,WUHU216HW,2013-08-30 16:15:00,
2013-08-30 12:20:00,82.5,71.7,30.21,SW,225,4.4,9.1,70,0.00,,,0.00,WUHU216HW,2013-08-30 16:20:00,
2013-08-30 12:25:00,83.4,71.7,30.21,WSW,248,7.3,9.1,68,0.00,,,0.00,WUHU216HW,2013-08-30 16:25:00,
2013-08-30 12:30:00,84.0,71.8,30.21,WSW,248,1.5,7.3,67,0.00,,,0.00,WUHU216HW,2013-08-30 16:30:00,
2013-08-30 12:35:00,84.5,71.9,30.21,WSW,248,8.7,8.7,66,0.00,,,0.00,WUHU216HW,2013-08-30 16:35:00,
2013-08-30 12:40:00,84.9,71.8,30.21,WSW,248,8.2,9.6,65,0.00,,,0.00,WUHU216HW,2013-08-30 16:40:00,
2013-08-30 12:45:00,84.9,71.8,30.21,WSW,248,6.9,9.6,65,0.00,,,0.00,WUHU216HW,2013-08-30 16:45:00,
2013-08-30 12:50:00,84.9,71.3,30.21,WSW,248,9.8,10.5,64,0.00,,,0.00,WUHU216HW,2013-08-30 16:50:00,
2013-08-30 12:55:00,84.5,71.0,30.21,WSW,248,5.3,10.5,64,0.00,,,0.00,WUHU216HW,2013-08-30 16:55:00,
2013-08-30 13:00:00,84.3,71.3,30.21,WSW,248,6.2,6.7,65,0.00,,,0.00,WUHU216HW,2013-08-30 17:00:00,
2013-08-30 13:05:00,84.9,71.8,30.20,SW,225,5.1,6.7,65,0.00,,,0.00,WUHU216HW,2013-08-30 17:05:00,
2013-08-30 13:10:00,85.2,71.2,30.20,SW,225,8.5,8.9,63,0.00,,,0.00,WUHU216HW,2013-08-30 17:10:00,
2013-08-30 13:15:00,85.6,71.5,30.20,SW,225,2.9,9.8,63,0.00,,,0.00,WUHU216HW,2013-08-30 17:15:00,
2013-08-30 13:20:00,85.8,71.7,30.19,WSW,248,6.9,9.8,63,0.00,,,0.00,WUHU216HW,2013-08-30 17:20:00,
2013-08-30 13:25:00,86.3,71.7,30.19,SW,225,2.0,8.7,62,0.00,,,0.00,WUHU216HW,2013-08-30 17:25:00,
2013-08-30 13:30:00,86.5,71.9,30.18,WSW,248,9.1,9.1,62,0.00,,,0.00,WUHU216HW,2013-08-30 17:30:00,
2013-08-30 13:35:00,86.7,71.6,30.18,WSW,248,6.0,9.1,61,0.00,,,0.00,WUHU216HW,2013-08-30 17:35:00,
2013-08-30 13:40:00,87.0,72.0,30.18,SW,225,4.2,8.9,61,0.00,,,0.00,WUHU216HW,2013-08-30 17:40:00,
2013-08-30 13:45:00,87.0,72.0,30.18,WSW,248,6.2,8.9,61,0.00,,,0.00,WUHU216HW,2013-08-30 17:45:00,
2013-08-30 13:50:00,87.2,72.2,30.18,WSW,248,5.5,6.2,61,0.00,,,0.00,WUHU216HW,2013-08-30 17:50:00,
2013-08-30 13:55:00,87.4,71.9,30.18,WSW,248,6.7,6.9,60,0.00,,,0.00,WUHU216HW,2013-08-30 17:55:00,
2013-08-30 14:00:00,87.2,71.2,30.18,WSW,248,5.8,6.9,59,0.00,,,0.00,WUHU216HW,2013-08-30 18:00:00,
2013-08-30 14:05:00,87.2,71.7,30.18,SW,225,5.8,6.7,60,0.00,,,0.00,WUHU216HW,2013-08-30 18:05:00,
2013-08-30 14:10:00,87.4,71.4,30.17,SW,225,8.0,8.0,59,0.00,,,0.00,WUHU216HW,2013-08-30 18:10:00,
2013-08-30 14:15:00,87.2,71.2,30.17,SW,225,6.7,8.0,59,0.00,,,0.00,WUHU216HW,2013-08-30 18:15:00,
2013-08-30 14:20:00,87.2,71.2,30.17,WSW,248,1.3,8.0,59,0.00,,,0.00,WUHU216HW,2013-08-30 18:20:00,
2013-08-30 14:25:00,87.2,71.2,30.16,WSW,248,6.0,7.1,59,0.00,,,0.00,WUHU216HW,2013-08-30 18:25:00,
2013-08-30 14:30:00,87.4,71.9,30.16,WSW,248,2.0,6.9,60,0.00,,,0.00,WUHU216HW,2013-08-30 18:30:00,
2013-08-30 14:35:00,87.6,71.6,30.16,SW,225,6.7,6.9,59,0.00,,,0.00,WUHU216HW,2013-08-30 18:35:00,
2013-08-30 14:40:00,87.9,71.4,30.16,WSW,248,8.5,8.5,58,0.00,,,0.00,WUHU216HW,2013-08-30 18:40:00,
2013-08-30 14:45:00,87.9,71.4,30.16,WSW,248,7.3,8.5,58,0.00,,,0.00,WUHU216HW,2013-08-30 18:45:00,
2013-08-30 14:50:00,87.9,71.9,30.16,WSW,248,7.1,8.5,59,0.00,,,0.00,WUHU216HW,2013-08-30 18:50:00,
2013-08-30 14:55:00,87.9,71.9,30.15,WSW,248,6.4,9.6,59,0.00,,,0.00,WUHU216HW,2013-08-30 18:55:00,
2013-08-30 15:00:00,87.8,71.7,30.15,SW,225,5.3,9.6,59,0.00,,,0.00,WUHU216HW,2013-08-30 19:00:00,
2013-08-30 15:05:00,87.6,71.6,30.14,WSW,248,5.3,9.1,59,0.00,,,0.00,WUHU216HW,2013-08-30 19:05:00,
2013-08-30 15:10:00,87.4,71.4,30.14,SW,225,6.0,9.1,59,0.00,,,0.00,WUHU216HW,2013-08-30 19:10:00,
2013-08-30 15:15:00,87.4,71.4,30.14,SW,225,9.1,9.1,59,0.00,,,0.00,WUHU216HW,2013-08-30 19:15:00,
2013-08-30 15:20:00,87.6,72.1,30.13,SW,225,4.2,9.1,60,0.00,,,0.00,WUHU216HW,2013-08-30 19:20:00,
2013-08-30 15:25:00,87.6,72.1,30.14,WSW,248,6.9,8.7,60,0.00,,,0.00,WUHU216HW,2013-08-30 19:25:00,
2013-08-30 15:30:00,87.6,71.6,30.14,WSW,248,6.2,8.7,59,0.00,,,0.00,WUHU216HW,2013-08-30 19:30:00,
2013-08-30 15:35:00,87.0,71.6,30.13,West,270,8.9,9.3,60,0.00,,,0.00,WUHU216HW,2013-08-30 19:35:00,
2013-08-30 15:40:00,86.7,71.2,30.13,WSW,248,5.3,9.3,60,0.00,,,0.00,WUHU216HW,2013-08-30 19:40:00,
2013-08-30 15:45:00,86.5,71.5,30.12,SW,225,6.7,8.5,61,0.00,,,0.00,WUHU216HW,2013-08-30 19:45:00,
2013-08-30 15:50:00,86.3,71.3,30.12,WSW,248,1.3,8.5,61,0.00,,,0.00,WUHU216HW,2013-08-30 19:50:00,
2013-08-30 15:55:00,85.8,71.2,30.12,SW,225,6.9,6.9,62,0.00,,,0.00,WUHU216HW,2013-08-30 19:55:00,
2013-08-30 16:00:00,85.6,71.1,30.12,WSW,248,6.0,6.9,62,0.00,,,0.00,WUHU216HW,2013-08-30 20:00:00,
2013-08-30 16:05:00,85.2,71.2,30.12,WSW,248,5.3,6.9,63,0.00,,,0.00,WUHU216HW,2013-08-30 20:05:00,
2013-08-30 16:10:00,84.9,71.3,30.12,SW,225,6.4,6.7,64,0.00,,,0.00,WUHU216HW,2013-08-30 20:10:00,
2013-08-30 16:15:00,84.7,71.2,30.11,WSW,248,6.2,6.7,64,0.00,,,0.00,WUHU216HW,2013-08-30 20:15:00,
2013-08-30 16:20:00,84.5,71.0,30.11,SW,225,5.1,7.1,64,0.00,,,0.00,WUHU216HW,2013-08-30 20:20:00,
2013-08-30 16:25:00,84.5,71.4,30.11,WSW,248,6.2,7.1,65,0.00,,,0.00,WUHU216HW,2013-08-30 20:25:00,
2013-08-30 16:30:00,84.5,71.4,30.11,WSW,248,6.9,8.9,65,0.00,,,0.00,WUHU216HW,2013-08-30 20:30:00,
2013-08-30 16:35:00,84.9,71.8,30.11,SW,225,6.0,8.9,65,0.00,,,0.00,WUHU216HW,2013-08-30 20:35:00,
2013-08-30 16:40:00,85.1,71.9,30.11,WSW,248,6.0,6.4,65,0.00,,,0.00,WUHU216HW,2013-08-30 20:40:00,
2013-08-30 16:45:00,85.1,71.9,30.11,SW,225,5.8,6.4,65,0.00,,,0.00,WUHU216HW,2013-08-30 20:45:00,
2013-08-30 16:50:00,85.1,71.9,30.11,WSW,248,7.3,8.2,65,0.00,,,0.00,WUHU216HW,2013-08-30 20:50:00,
2013-08-30 16:55:00,84.9,71.8,30.11,WSW,248,5.3,8.2,65,0.00,,,0.00,WUHU216HW,2013-08-30 20:55:00,
2013-08-30 17:00:00,84.9,71.8,30.11,WSW,248,6.0,7.3,65,0.00,,,0.00,WUHU216HW,2013-08-30 21:00:00,
2013-08-30 17:05:00,84.7,71.6,30.11,WSW,248,7.3,7.3,65,0.00,,,0.00,WUHU216HW,2013-08-30 21:05:00,
2013-08-30 17:10:00,84.5,71.4,30.10,WSW,248,3.1,7.3,65,0.00,,,0.00,WUHU216HW,2013-08-30 21:10:00,
2013-08-30 17:15:00,84.2,71.1,30.11,WSW,248,6.7,7.3,65,0.00,,,0.00,WUHU216HW,2013-08-30 21:15:00,
2013-08-30 17:20:00,84.0,70.9,30.11,WSW,248,6.9,6.9,65,0.00,,,0.00,WUHU216HW,2013-08-30 21:20:00,
2013-08-30 17:25:00,83.8,71.2,30.11,WSW,248,5.1,7.1,66,0.00,,,0.00,WUHU216HW,2013-08-30 21:25:00,
2013-08-30 17:30:00,83.6,71.0,30.10,WSW,248,5.3,7.1,66,0.00,,,0.00,WUHU216HW,2013-08-30 21:30:00,
2013-08-30 17:35:00,83.3,71.3,30.09,WSW,248,6.2,7.1,67,0.00,,,0.00,WUHU216HW,2013-08-30 21:35:00,
2013-08-30 17:40:00,83.1,71.4,30.11,WSW,248,0.0,6.2,68,0.00,,,0.00,WUHU216HW,2013-08-30 21:40:00,
2013-08-30 17:45:00,82.9,71.2,30.13,WSW,248,0.0,6.2,68,0.00,,,0.00,WUHU216HW,2013-08-30 21:45:00,
2013-08-30 17:50:00,82.0,72.0,30.14,North,0,0.0,1.5,72,0.00,,,0.00,WUHU216HW,2013-08-30 21:50:00,
2013-08-30 17:55:00,80.6,71.1,30.15,North,0,0.0,1.5,73,0.00,,,0.00,WUHU216HW,2013-08-30 21:55:00,
2013-08-30 18:00:00,79.7,71.0,30.15,WSW,248,0.0,0.0,75,0.00,,,0.00,WUHU216HW,2013-08-30 22:00:00,
2013-08-30 18:05:00,79.1,71.0,30.15,WSW,248,0.0,0.0,77,0.00,,,0.00,WUHU216HW,2013-08-30 22:05:00,
2013-08-30 18:10:00,78.6,71.1,30.14,WSW,248,0.0,0.0,78,0.00,,,0.00,WUHU216HW,2013-08-30 22:10:00,
2013-08-30 18:15:00,78.4,70.9,30.14,WSW,248,0.0,0.0,78,0.00,,,0.00,WUHU216HW,2013-08-30 22:15:00,
2013-08-30 18:20:00,78.0,71.4,30.14,WSW,248,0.0,0.0,80,0.00,,,0.00,WUHU216HW,2013-08-30 22:20:00,
2013-08-30 18:25:00,77.9,71.2,30.14,WSW,248,0.0,0.0,80,0.00,,,0.00,WUHU216HW,2013-08-30 22:25:00,
2013-08-30 18:30:00,78.0,71.7,30.14,WSW,248,0.0,0.0,81,0.00,,,0.00,WUHU216HW,2013-08-30 22:30:00,
2013-08-30 18:35:00,77.9,71.6,30.14,WSW,248,0.0,0.0,81,0.00,,,0.00,WUHU216HW,2013-08-30 22:35:00,
2013-08-30 18:40:00,77.7,71.4,30.14,WSW,248,0.0,0.0,81,0.00,,,0.00,WUHU216HW,2013-08-30 22:40:00,
2013-08-30 18:45:00,77.7,71.7,30.14,WSW,248,0.0,0.0,82,0.00,,,0.00,WUHU216HW,2013-08-30 22:45:00,
2013-08-30 18:50:00,77.5,71.6,30.14,WSW,248,0.0,0.0,82,0.00,,,0.00,WUHU216HW,2013-08-30 22:50:00,
2013-08-30 18:55:00,77.5,71.6,30.14,WSW,248,0.0,0.0,82,0.00,,,0.00,WUHU216HW,2013-08-30 22:55:00,
2013-08-30 19:00:00,77.5,71.9,30.14,WSW,248,0.0,0.0,83,0.00,,,0.00,WUHU216HW,2013-08-30 23:00:00,
2013-08-30 19:05:00,77.3,71.7,30.14,WSW,248,0.0,0.0,83,0.00,,,0.00,WUHU216HW,2013-08-30 23:05:00,
2013-08-30 19:10:00,77.3,71.7,30.14,WSW,248,0.0,0.0,83,0.00,,,0.00,WUHU216HW,2013-08-30 23:10:00,
2013-08-30 19:15:00,77.1,71.6,30.14,WSW,248,0.0,0.0,83,0.00,,,0.00,WUHU216HW,2013-08-30 23:15:00,
2013-08-30 19:20:00,77.1,71.6,30.14,WSW,248,0.0,0.0,83,0.00,,,0.00,WUHU216HW,2013-08-30 23:20:00,
2013-08-30 19:25:00,77.1,71.6,30.15,WSW,248,0.0,0.0,83,0.00,,,0.00,WUHU216HW,2013-08-30 23:25:00,
2013-08-30 19:29:00,77.0,71.7,30.15,WSW,248,0.0,0.0,84,0.00,,,0.00,WUHU216HW,2013-08-30 23:29:00,
2013-08-30 19:34:00,76.8,71.6,30.14,WSW,248,0.0,0.0,84,0.00,,,0.00,WUHU216HW,2013-08-30 23:34:00,
2013-08-30 19:39:00,76.8,71.6,30.15,WSW,248,0.0,0.0,84,0.00,,,0.00,WUHU216HW,2013-08-30 23:39:00,
2013-08-30 19:44:00,76.8,71.6,30.15,WSW,248,0.0,0.0,84,0.00,,,0.00,WUHU216HW,2013-08-30 23:44:00,
2013-08-30 19:49:00,76.6,71.4,30.15,WSW,248,0.0,0.0,84,0.00,,,0.00,WUHU216HW,2013-08-30 23:49:00,
2013-08-30 19:54:00,76.4,71.2,30.15,WSW,248,0.0,0.0,84,0.00,,,0.00,WUHU216HW,2013-08-30 23:54:00,
2013-08-30 19:59:00,76.4,71.2,30.15,WSW,248,0.0,0.0,84,0.00,,,0.00,WUHU216HW,2013-08-30 23:59:00,
2013-08-30 20:04:00,76.2,71.4,30.15,SW,225,0.0,0.0,85,0.00,,,0.00,WUHU216HW,2013-08-31 00:04:00,
2013-08-30 20:09:00,76.2,71.4,30.15,SW,225,0.0,0.0,85,0.00,,,0.00,WUHU216HW,2013-08-31 00:09:00,
2013-08-30 20:14:00,76.1,71.2,30.15,SW,225,0.0,0.0,85,0.00,,,0.00,WUHU216HW,2013-08-31 00:14:00,
2013-08-30 20:19:00,75.9,71.1,30.15,WSW,248,0.0,0.0,85,0.00,,,0.00,WUHU216HW,2013-08-31 00:19:00,
2013-08-30 20:24:00,75.9,70.7,30.15,WSW,248,0.0,0.0,84,0.00,,,0.00,WUHU216HW,2013-08-31 00:24:00,
2013-08-30 20:29:00,75.7,70.5,30.15,WSW,248,0.0,0.0,84,0.00,,,0.00,WUHU216HW,2013-08-31 00:29:00,
2013-08-30 20:34:00,75.3,70.2,30.16,WSW,248,0.0,1.1,84,0.00,,,0.00,WUHU216HW,2013-08-31 00:34:00,
2013-08-30 20:39:00,75.2,69.7,30.16,WSW,248,0.0,1.1,83,0.00,,,0.00,WUHU216HW,2013-08-31 00:39:00,
2013-08-30 20:44:00,75.0,69.5,30.16,WSW,248,0.0,0.0,83,0.00,,,0.00,WUHU216HW,2013-08-31 00:44:00,
2013-08-30 20:49:00,74.8,69.3,30.16,WSW,248,0.0,0.0,83,0.00,,,0.00,WUHU216HW,2013-08-31 00:49:00,
2013-08-30 20:54:00,74.4,69.0,30.15,WSW,248,0.0,0.0,83,0.00,,,0.00,WUHU216HW,2013-08-31 00:54:00,
2013-08-30 20:59:00,74.4,69.0,30.15,WSW,248,0.0,0.0,83,0.00,,,0.00,WUHU216HW,2013-08-31 00:59:00,
2013-08-30 21:04:00,74.1,68.6,30.16,WSW,248,0.0,0.0,83,0.00,,,0.00,WUHU216HW,2013-08-31 01:04:00,
2013-08-30 21:09:00,73.9,68.4,30.16,WSW,248,0.0,0.0,83,0.00,,,0.00,WUHU216HW,2013-08-31 01:09:00,
2013-08-30 21:14:00,73.7,68.3,30.16,WSW,248,0.0,0.0,83,0.00,,,0.00,WUHU216HW,2013-08-31 01:14:00,
2013-08-30 21:19:00,73.5,68.1,30.16,WNW,293,0.0,0.0,83,0.00,,,0.00,WUHU216HW,2013-08-31 01:19:00,
2013-08-30 21:24:00,73.2,67.7,30.17,WNW,293,0.0,0.0,83,0.00,,,0.00,WUHU216HW,2013-08-31 01:24:00,
2013-08-30 21:29:00,73.2,67.4,30.18,North,0,0.0,0.0,82,0.00,,,0.00,WUHU216HW,2013-08-31 01:29:00,
2013-08-30 21:34:00,72.8,67.0,30.18,North,0,0.0,0.0,82,0.00,,,0.00,WUHU216HW,2013-08-31 01:34:00,
2013-08-30 21:39:00,72.6,66.8,30.18,North,0,0.0,0.0,82,0.00,,,0.00,WUHU216HW,2013-08-31 01:39:00,
2013-08-30 21:44:00,72.3,66.5,30.17,North,0,0.0,0.0,82,0.00,,,0.00,WUHU216HW,2013-08-31 01:44:00,
2013-08-30 21:49:00,72.1,66.0,30.17,North,0,0.0,0.0,81,0.00,,,0.00,WUHU216HW,2013-08-31 01:49:00,
2013-08-30 21:54:00,71.9,65.8,30.17,North,0,0.0,0.0,81,0.00,,,0.00,WUHU216HW,2013-08-31 01:54:00,
2013-08-30 21:59:00,71.7,65.6,30.18,North,0,0.0,0.0,81,0.00,,,0.00,WUHU216HW,2013-08-31 01:59:00,
2013-08-30 22:04:00,71.4,65.6,30.18,North,0,0.0,0.0,82,0.00,,,0.00,WUHU216HW,2013-08-31 02:04:00,
2013-08-30 22:09:00,71.4,65.6,30.18,North,0,0.0,0.0,82,0.00,,,0.00,WUHU216HW,2013-08-31 02:09:00,
2013-08-30 22:14:00,71.2,65.4,30.18,North,0,0.0,0.0,82,0.00,,,0.00,WUHU216HW,2013-08-31 02:14:00,
2013-08-30 22:19:00,71.2,65.4,30.17,North,0,0.0,0.0,82,0.00,,,0.00,WUHU216HW,2013-08-31 02:19:00,
2013-08-30 22:24:00,70.8,65.0,30.17,North,0,0.0,0.0,82,0.00,,,0.00,WUHU216HW,2013-08-31 02:24:00,
2013-08-30 22:29:00,70.8,65.0,30.17,North,0,0.0,0.0,82,0.00,,,0.00,WUHU216HW,2013-08-31 02:29:00,
2013-08-30 22:34:00,70.7,64.9,30.18,North,0,0.0,0.0,82,0.00,,,0.00,WUHU216HW,2013-08-31 02:34:00,
2013-08-30 22:39:00,70.5,65.0,30.18,North,0,0.0,0.0,83,0.00,,,0.00,WUHU216HW,2013-08-31 02:39:00,
2013-08-30 22:44:00,70.5,65.0,30.18,North,0,0.0,0.0,83,0.00,,,0.00,WUHU216HW,2013-08-31 02:44:00,
2013-08-30 22:49:00,70.3,64.8,30.19,North,0,0.0,0.0,83,0.00,,,0.00,WUHU216HW,2013-08-31 02:49:00,
2013-08-30 22:54:00,70.1,64.7,30.19,North,0,0.0,0.0,83,0.00,,,0.00,WUHU216HW,2013-08-31 02:54:00,
2013-08-30 22:59:00,69.9,64.5,30.19,North,0,0.0,0.0,83,0.00,,,0.00,WUHU216HW,2013-08-31 02:59:00,
2013-08-30 23:04:00,69.8,64.3,30.19,North,0,0.0,0.0,83,0.00,,,0.00,WUHU216HW,2013-08-31 03:04:00,
2013-08-30 23:09:00,69.6,64.1,30.19,North,0,0.0,0.0,83,0.00,,,0.00,WUHU216HW,2013-08-31 03:09:00,
2013-08-30 23:14:00,69.6,64.1,30.18,North,0,0.0,0.0,83,0.00,,,0.00,WUHU216HW,2013-08-31 03:14:00,
2013-08-30 23:19:00,69.4,64.0,30.18,North,0,0.0,0.0,83,0.00,,,0.00,WUHU216HW,2013-08-31 03:19:00,
2013-08-30 23:24:00,69.4,64.0,30.19,North,0,0.0,0.0,83,0.00,,,0.00,WUHU216HW,2013-08-31 03:24:00,
2013-08-30 23:29:00,69.4,64.0,30.19,North,0,0.0,0.0,83,0.00,,,0.00,WUHU216HW,2013-08-31 03:29:00,
2013-08-30 23:34:00,69.2,63.8,30.19,North,0,0.0,0.0,83,0.00,,,0.00,WUHU216HW,2013-08-31 03:34:00,
2013-08-30 23:39:00,69.0,63.6,30.19,North,0,0.0,0.0,83,0.00,,,0.00,WUHU216HW,2013-08-31 03:39:00,
2013-08-30 23:44:00,69.0,63.6,30.19,North,0,0.0,0.0,83,0.00,,,0.00,WUHU216HW,2013-08-31 03:44:00,
2013-08-30 23:49:00,69.0,64.0,30.19,North,0,0.0,0.0,84,0.00,,,0.00,WUHU216HW,2013-08-31 03:49:00,
2013-08-30 23:54:00,69.0,64.0,30.19,North,0,0.0,0.0,84,0.00,,,0.00,WUHU216HW,2013-08-31 03:54:00,
2013-08-30 23:59:00,68.9,63.8,30.18,North,0,0.0,0.0,84,0.00,,,0.00,WUHU216HW,2013-08-31 03:59:00,